Location: Newark
(46.7458°N, 0.9467°W)
Time: 06:13:11
(UTC+00:00)

ISS - Visible Passes

Search period start: 22 September 2019 00:00
Search period end: 02 October 2019 00:00
Orbit: 411 x 421 km, 51.6° (Epoch: 22 September)

Date Brightness Start Highest point End Pass type
(mag) Time Alt. Az. Time Alt. Az. Time Alt. Az.
22 Sep -3.9 19:21:58 10° WSW 19:25:18 79° SSE 19:26:55 28° ENE visible
22 Sep -0.7 20:59:07 10° WNW 20:59:49 15° WNW 20:59:49 15° WNW visible
23 Sep -3.5 18:33:37 10° SW 18:36:51 51° SSE 18:40:05 10° ENE visible
23 Sep -2.7 20:10:28 10° W 20:13:25 42° NNW 20:13:25 42° NNW visible
24 Sep -3.2 19:21:49 10° W 19:25:05 54° NNW 19:26:54 23° NE visible
24 Sep -0.5 20:59:09 10° WNW 20:59:48 14° WNW 20:59:48 14° WNW visible
25 Sep -3.6 18:33:12 10° WSW 18:36:32 75° NNW 18:39:51 10° ENE visible
25 Sep -2.2 20:10:31 10° WNW 20:13:12 33° NNW 20:13:12 33° NNW visible
26 Sep -2.6 19:21:49 10° W 19:24:57 37° N 19:26:33 22° NE visible
26 Sep -0.4 20:59:00 10° WNW 20:59:26 13° WNW 20:59:26 13° WNW visible
27 Sep -2.9 18:33:06 10° W 18:36:18 44° NNW 18:39:32 10° ENE visible
27 Sep -2.0 20:10:25 10° WNW 20:12:44 30° NNW 20:12:44 30° NNW visible
28 Sep -2.5 19:21:46 10° WNW 19:24:50 33° N 19:26:00 25° NE visible
28 Sep -0.3 20:58:40 10° WNW 20:58:53 11° WNW 20:58:53 11° WNW visible
29 Sep -2.5 18:33:03 10° WNW 18:36:09 34° N 18:39:15 10° ENE visible
29 Sep -1.9 20:10:07 10° WNW 20:12:08 30° NW 20:12:08 30° NW visible
30 Sep -2.8 19:21:32 10° WNW 19:24:41 38° N 19:25:23 33° NE visible
01 Oct -2.6 18:32:53 10° WNW 18:35:59 34° N 18:38:38 13° ENE visible
01 Oct -1.8 20:09:41 10° WNW 20:11:31 30° WNW 20:11:31 30° WNW visible
